Simultaneous Nadir Overpasses (SNOs) Predictions

Prediction of SNOs over PacNW region [( 10.00, 139.50) to ( 22.70, 165.60)] between NOAA-19 and NPP Satellites:

Table of predicted SNOs over PacNW region for the next 30.0 days since TLE Epoch: 9/29/2012
Index Date (NOAA-19) Time (NOAA-19) NOAA-19 Lat,Lon Date (NPP) Time (NPP) NPP Lat,Lon Distance(km) Time Diff (sec)
1 10/09/2012 03:23:54 10.10, 150.84 10/09/2012 03:27:29 9.23, 147.46 383.45 215
2 10/09/2012 16:00:37 20.61, 146.60 10/09/2012 16:00:02 21.10, 144.12 263.43 35
3 10/10/2012 03:16:40 22.69, 150.52 10/10/2012 03:13:03 25.46, 148.32 379.65 217
4 10/21/2012 15:32:10 22.63, 154.10 10/21/2012 15:33:47 23.33, 151.07 320.44 97
5 10/22/2012 02:48:45 22.68, 157.53 10/22/2012 02:46:31 22.26, 155.53 210.66 134
